Lid_Strength_Index
15 14 15 16 16 16 17 16 18 17 16 15 14 13 11 12 12 12 11 11 10 8 5 4 4 3 3 3 3 2 2 3 5 5 5 5 6 6 6 5 5 4 4 4
15 13 14 17 16 16 16 16 16 16 18 14 13 12 12 13 14 13 12 11 10 9 8 4 4 4 3 3 2 2 2 3 4 5 5 6 6 7 7 6 6 5 5 5
18 15 15 19 17 16 17 16 17 20 17 14 15 13 15 15 14 14 13 12 11 11 9 9 6 3 3 3 2 2 2 3 5 5 5 6 6 7 7 7 7 6 6 5
22 18 24 17 13 14 16 17 16 16 16 15 15 14 14 14 15 14 13 13 12 11 10 10 8 7 3 2 2 3 3 3 5 5 5 6 6 7 7 7 8 7 7 6
23 21 19 17 16 16 17 19 16 16 16 15 15 14 15 15 15 14 13 12 11 10 10 10 11 8 4 3 3 3 3 3 4 5 5 6 6 7 7 8 8 8 7 7
21 24 25 18 14 13 13 21 16 15 16 16 16 20 18 15 15 14 13 13 12 11 11 11 11 9 8 9 3 3 3 3 4 5 5 6 7 7 7 8 8 8 8 8
19 21 19 15 14 13 22 21 14 14 15 15 17 16 15 15 15 14 14 14 12 12 12 12 11 10 11 11 11 10 8 2 4 4 5 6 7 7 8 8 9 9 9 10
19 22 24 13 14 19 16 13 13 13 13 14 13 13 14 15 15 15 15 15 14 14 13 13 12 12 12 12 11 10 7 4 4 5 5 6 7 7 7 8 8 10 10 11
19 19 14 12 13 12 12 12 13 13 12 12 13 13 13 15 15 15 15 16 15 15 14 14 13 13 13 13 11 9 4 4 4 4 5 6 7 7 8 8 8 9 10 10
19 16 16 14 11 11 11 12 11 11 12 12 13 12 13 14 15 15 15 15 16 16 16 15 14 14 13 13 12 11 11 8 5 5 6 6 6 7 7 8 8 9 9 9
16 14 13 12 12 11 11 11 11 11 11 11 12 12 13 14 15 15 15 15 15 16 16 16 15 15 14 13 13 13 12 11 10 6 6 6 6 7 7 7 7 8 8 7
20 13 14 14 11 11 11 11 11 12 12 11 11 12 12 13 13 15 15 14 15 16 15 15 15 15 15 13 13 13 14 13 13 11 7 6 8 9 13 10 12 12 10 9
13 11 11 11 11 10 11 11 11 11 11 12 11 11 11 13 13 13 14 14 15 16 16 15 15 15 15 13 13 14 14 14 13 13 12 10 7 8 9 11 13 12 12 12
11 11 12 12 12 11 10 10 9 11 11 11 11 11 11 12 13 13 14 14 14 15 15 15 15 15 14 13 13 13 14 15 14 14 13 12 12 10 8 9 9 9 12 12
10 10 11 11 10 10 10 10 10 11 11 11 11 11 11 13 13 13 13 13 14 15 15 15 15 14 14 14 13 13 14 14 13 13 14 14 13 13 12 12 12 12 12 13
11 10 10 10 10 9 9 10 10 11 11 12 12 12 11 12 13 13 13 13 15 16 15 15 15 14 13 13 13 13 13 14 14 13 13 13 14 14 14 14 14 14 14 15
12 12 11 11 10 10 9 9 9 9 10 11 11 12 12 12 12 13 13 13 13 14 14 15 14 13 13 13 13 13 13 13 13 13 14 13 13 14 14 14 14 14 14 14
10 10 10 10 10 10 10 9 9 9 9 9 10 11 11 12 13 13 13 13 14 14 14 14 13 13 13 13 13 13 13 13 13 13 13 13 13 13 14 14 14 14 14 15
10 10 10 9 9 9 10 9 9 9 9 9 9 10 10 11 11 12 12 13 14 15 15 14 13 13 13 12 12 12 13 13 13 13 13 13 13 13 13 13 14 14 14 14
10 10 10 10 9 9 9 9 9 9 9 9 9 10 10 11 11 11 11 12 13 14 14 13 13 14 13 13 13 12 13 14 14 14 14 14 14 14 14 13 13 14 14 14
11 11 11 10 10 10 10 10 11 9 9 10 10 11 11 10 10 11 11 12 12 12 13 13 13 13 13 14 14 13 14 15 15 15 14 14 15 14 14 14 13 13 13 13
11 11 11 10 10 10 10 9 9 10 10 11 11 12 12 11 11 11 11 12 11 14 12 12 12 12 12 14 14 14 15 15 15 15 14 14 14 14 14 14 13 13 13 13
11 11 11 10 10 10 9 10 12 12 14 12 11 11 11 11 11 13 13 12 12 13 12 12 13 12 13 13 13 13 13 13 15 15 14 14 13 13 13 13 13 13 13 13
11 11 11 10 10 10 10 10 10 10 13 10 10 11 11 12 13 12 12 14 15 14 12 12 11 12 13 12 13 13 12 13 13 14 13 15 13 13 13 13 13 13 13 13
11 11 10 10 11 11 10 10 10 10 11 11 11 11 11 12 12 12 13 13 14 13 13 14 13 14 12 12 12 12 12 12 13 12 13 13 13 13 13 12 12 12 12 12
11 11 10 10 10 11 11 10 11 11 11 12 12 13 13 12 12 13 13 14 13 13 12 13 14 14 13 12 11 12 12 11 12 12 12 12 12 12 12 11 11 11 10 10
11 13 11 11 11 11 11 11 11 11 12 12 12 13 13 13 13 14 14 13 13 13 14 15 13 13 13 12 12 12 12 12 13 12 12 12 12 12 11 10 10 9 9 9